Flag for United Kingdom Weather past 2 weeks in Guildford, England, United Kingdom

Now
63 °F

Passing clouds.


Feels Like: 63 °F
Forecast: 50 / 66 °F
Wind: 9 mph from West

Location: Farnborough Airport

Current Time: Aug 30, 2014 at 9:15:04 PM

Latest Report: Aug 30, 2014 at 6:50 PM


Visibility: N/A

Pressure: 30.01 "Hg

Humidity: 68%

Dew point: 52 °F

Location of GuildfordLocation

Historic Weather in Guildford — Graph

°F

Guildford temperature yesterday

Maximum temperature yesterday: 68 °F (at 2:20 PM)
Minimum temperature yesterday: 57 °F (at 6:50 AM)
Average temperature yesterday: 63 °F

Past Weeks' High & Low Weather Summary

 TemperatureHumidityPressure
High70 °F (Aug 28, 1:50 PM)100% (Aug 20, 6:50 AM)30.18 "Hg (Aug 20, 6:50 AM)
Low41 °F (Aug 21, 6:50 AM)37% (Aug 22, 3:50 PM)29.56 "Hg (Aug 25, 6:20 PM)
Average61 °F71%29.92 "Hg
* Reported Aug 15 6:20 PM — Aug 30 6:50 PM, Guildford, Weather by CustomWeather, © 2014

Note: Actual official high and low records may vary slightly from our data, if they occured in-between our weather recording intervals... More about our weather records

Advertising

Guildford weather history for previous 24 hours

 ConditionsComfort  
Time TempWeatherWind HumidityBarometerVisibility
6:50 PM
Aug 30
63 °FPassing clouds.9 mph68%30.01 "HgN/A
6:20 PM64 °FPassing clouds.10 mph64%30.01 "HgN/A
5:50 PM64 °FPassing clouds.8 mph64%30.01 "HgN/A
5:20 PM64 °FPassing clouds.7 mph64%30.01 "HgN/A
4:50 PM64 °FPassing clouds.9 mph60%30.01 "HgN/A
4:20 PM64 °FPassing clouds.8 mph60%30.01 "HgN/A
3:50 PM66 °FScattered clouds.8 mph56%30.01 "HgN/A
3:20 PM64 °FScattered clouds.9 mph60%30.01 "HgN/A
2:50 PM66 °FScattered clouds.10 mph52%30.01 "HgN/A
2:20 PM64 °FPassing clouds.10 mph60%30.01 "HgN/A
1:50 PM66 °FPassing clouds.10 mph56%30.01 "HgN/A
1:20 PM64 °FPassing clouds.9 mph60%30.01 "HgN/A
12:50 PM64 °FPassing clouds.14 mph60%30.01 "HgN/A
12:20 PM64 °FPassing clouds.13 mph60%30.01 "HgN/A
11:50 AM64 °FPassing clouds.13 mph60%30.01 "HgN/A
11:20 AM63 °FPassing clouds.13 mph64%30.01 "HgN/A
10:50 AM61 °FPassing clouds.14 mph63%30.01 "HgN/A
10:20 AM63 °FPassing clouds.12 mph59%30.01 "HgN/A
9:50 AM59 °FPassing clouds.12 mph72%30.01 "HgN/A
9:20 AM59 °FPassing clouds.13 mph72%29.98 "HgN/A
8:50 AM59 °FPassing clouds.13 mph77%29.98 "HgN/A
8:20 AM57 °FPassing clouds.9 mph82%29.98 "HgN/A
7:50 AM57 °FPassing clouds.8 mph82%29.98 "HgN/A
9:20 PM
Aug 29
61 °FPassing clouds.13 mph88%29.95 "HgN/A
Weather by CustomWeather, © 2014

See weather overviewHow to use our weather pages